| time (UTC) | temp C | wind direction | speed KPH | gust KPH | rain 1hr cm | rain 24hr cm | rain mn cm | humidity % | barometer mb |
| 20260505170258 | 27 | 198 | 8.0 | 27.4 | 0.00 | 0.00 | 0.00 | 36 | 1009.2 |
| 20260505170049 | 27 | 178 | 6.4 | 25.7 | 0.00 | 0.00 | 0.00 | 37 | 1009.5 |
| 20260505165754 | 27 | 192 | 8.0 | 25.7 | 0.00 | 0.00 | 0.00 | 39 | 1009.4 |
| 20260505165251 | 27 | 190 | 11.3 | 25.7 | 0.00 | 0.00 | 0.00 | 37 | 1009.5 |
| 20260505164745 | 27 | 165 | 8.0 | 25.7 | 0.00 | 0.00 | 0.00 | 39 | 1009.5 |
| 20260505164543 | 27 | 252 | 9.7 | 25.7 | 0.00 | 0.00 | 0.00 | 38 | 1009.8 |
| 20260505164459 | 27 | 187 | 12.9 | 25.7 | 0.00 | 0.00 | 0.00 | 39 | 1009.6 |
| 20260505163735 | 27 | 210 | 9.7 | 22.5 | 0.00 | 0.00 | 0.00 | 40 | 1009.8 |
| 20260505163230 | 27 | 254 | 9.7 | 22.5 | 0.00 | 0.00 | 0.00 | 41 | 1009.6 |
| 20260505163041 | 26 | 225 | 12.9 | 29.0 | 0.00 | 0.00 | 0.00 | 39 | 1010.0 |
| 20260505162726 | 27 | 180 | 9.7 | 22.5 | 0.00 | 0.00 | 0.00 | 41 | 1009.8 |
| 20260505162221 | 27 | 211 | 12.9 | 22.5 | 0.00 | 0.00 | 0.00 | 39 | 1009.8 |
| 20260505161720 | 27 | 233 | 6.4 | 17.7 | 0.00 | 0.00 | 0.00 | 39 | 1009.7 |
| 20260505161541 | 26 | 248 | 8.0 | 27.4 | 0.00 | 0.00 | 0.00 | 41 | 1010.0 |
| 20260505161212 | 27 | 198 | 8.0 | 27.4 | 0.00 | 0.00 | 0.00 | 42 | 1009.8 |
| 20260505160706 | 27 | 265 | 4.8 | 27.4 | 0.00 | 0.00 | 0.00 | 42 | 1009.7 |
| 20260505160200 | 26 | 197 | 8.0 | 17.7 | 0.00 | 0.00 | 0.00 | 42 | 1009.7 |
| 20260505153132 | 25 | 334 | 12.9 | 20.9 | 0.00 | 0.00 | 0.00 | 41 | 1010.0 |
| 20260505153052 | 25 | 201 | 9.7 | 24.1 | 0.00 | 0.00 | 0.00 | 40 | 1010.3 |
| 20260505152628 | 25 | 242 | 8.0 | 20.9 | 0.00 | 0.00 | 0.00 | 42 | 1010.1 |
| 20260505152349 | 25 | 199 | 6.4 | 22.5 | 0.00 | 0.00 | 0.00 | 42 | 1010.1 |
| 20260505151622 | 25 | 217 | 9.7 | 22.5 | 0.00 | 0.00 | 0.00 | 42 | 1010.1 |
| 20260505151540 | 25 | 225 | 8.0 | 22.5 | 0.00 | 0.00 | 0.00 | 41 | 1010.4 |
| 20260505151117 | 25 | 212 | 6.4 | 12.9 | 0.00 | 0.00 | 0.00 | 44 | 1010.1 |
| 20260505150842 | 25 | 210 | 3.2 | 11.3 | 0.00 | 0.00 | 0.00 | 47 | 1010.1 |
| 20260505150113 | 24 | 261 | 1.6 | 16.1 | 0.00 | 0.00 | 0.00 | 47 | 1010.2 |
| 20260505140530 | 21 | 209 | 4.8 | 11.3 | 0.00 | 0.00 | 0.00 | 50 | 1010.6 |
| 20260505124920 | 18 | 211 | 4.8 | 11.3 | 0.00 | 0.00 | 0.00 | 59 | 1011.3 |
| 20260505124605 | 18 | 205 | 4.8 | 11.3 | 0.00 | 0.00 | 0.00 | 59 | 1011.5 |
| 20260505124407 | 18 | 204 | 6.4 | 11.3 | 0.00 | 0.00 | 0.00 | 60 | 1011.1 |
| 20260505123904 | 18 | 198 | 3.2 | 9.7 | 0.00 | 0.00 | 0.00 | 60 | 1011.1 |
| 20260505123359 | 18 | 315 | 4.8 | 9.7 | 0.00 | 0.00 | 0.00 | 61 | 1011.1 |
| 20260505123110 | 17 | 0 | 1.6 | 9.7 | 0.00 | 0.00 | 0.00 | 62 | 1011.3 |
| 20260505122854 | 18 | 243 | 1.6 | 8.0 | 0.00 | 0.00 | 0.00 | 63 | 1011.1 |
| 20260505122343 | 17 | 240 | 3.2 | 8.0 | 0.00 | 0.00 | 0.00 | 63 | 1011.0 |
| 20260505121839 | 17 | 207 | 1.6 | 4.8 | 0.00 | 0.00 | 0.00 | 63 | 1011.1 |
| 20260505121541 | 17 | 0 | 1.6 | 8.0 | 0.00 | 0.00 | 0.00 | 64 | 1011.3 |
| 20260505121333 | 17 | 207 | 1.6 | 8.0 | 0.00 | 0.00 | 0.00 | 64 | 1011.0 |
| 20260505121049 | 17 | 207 | 3.2 | 8.0 | 0.00 | 0.00 | 0.00 | 66 | 1010.8 |
| 20260505120323 | 16 | 206 | 1.6 | 6.4 | 0.00 | 0.00 | 0.00 | 66 | 1010.8 |
| 20260505120052 | 16 | 206 | 1.6 | 6.4 | 0.00 | 0.00 | 0.00 | 67 | 1011.0 |
| 20260505115812 | 16 | 206 | 3.2 | 6.4 | 0.00 | 0.00 | 0.00 | 68 | 1010.8 |
| 20260505115309 | 16 | 206 | 1.6 | 4.8 | 0.00 | 0.00 | 0.00 | 72 | 1010.7 |
| 20260505114809 | 15 | 207 | 0.0 | 0.0 | 0.00 | 0.00 | 0.00 | 77 | 1010.7 |
| 20260505114549 | 15 | 0 | 0.0 | 0.0 | 0.00 | 0.00 | 0.00 | 76 | 1011.0 |
| 20260505114300 | 14 | 207 | 0.0 | 0.0 | 0.00 | 0.00 | 0.00 | 78 | 1010.7 |
| 20260505114007 | 13 | 207 | 0.0 | 0.0 | 0.00 | 0.00 | 0.00 | 80 | 1010.6 |
| 20260505113244 | 13 | 207 | 0.0 | 0.0 | 0.00 | 0.00 | 0.00 | 80 | 1010.5 |
| 20260505113044 | 13 | 0 | 0.0 | 0.0 | 0.00 | 0.00 | 0.00 | 80 | 1010.8 |
| 20260505112740 | 13 | 207 | 0.0 | 0.0 | 0.00 | 0.00 | 0.00 | 81 | 1010.7 |
| 20260505112236 | 13 | 207 | 0.0 | 0.0 | 0.00 | 0.00 | 0.00 | 81 | 1010.6 |
| 20260505111737 | 12 | 207 | 0.0 | 0.0 | 0.00 | 0.00 | 0.00 | 82 | 1010.5 |
| 20260505111540 | 12 | 0 | 0.0 | 0.0 | 0.00 | 0.00 | 0.00 | 82 | 1010.8 |
| 20260505111237 | 12 | 207 | 0.0 | 0.0 | 0.00 | 0.00 | 0.00 | 83 | 1010.6 |
| 20260505110731 | 12 | 207 | 0.0 | 0.0 | 0.00 | 0.00 | 0.00 | 83 | 1010.3 |
| 20260505110225 | 12 | 207 | 0.0 | 0.0 | 0.00 | 0.00 | 0.00 | 83 | 1010.4 |
| 20260505102140 | 11 | 207 | 0.0 | 0.0 | 0.00 | 0.00 | 0.00 | 81 | 1010.2 |
| 20260505101636 | 11 | 207 | 0.0 | 0.0 | 0.00 | 0.00 | 0.00 | 81 | 1010.2 |
| 20260505101545 | 11 | 0 | 0.0 | 0.0 | 0.00 | 0.00 | 0.00 | 81 | 1010.5 |
| 20260505101130 | 11 | 207 | 0.0 | 0.0 | 0.00 | 0.00 | 0.00 | 81 | 1010.1 |
| 20260505100635 | 11 | 207 | 0.0 | 0.0 | 0.00 | 0.00 | 0.00 | 80 | 1010.1 |
| 20260505100344 | 11 | 207 | 0.0 | 0.0 | 0.00 | 0.00 | 0.00 | 79 | 1009.9 |
| 20260505100041 | 11 | 0 | 0.0 | 0.0 | 0.00 | 0.00 | 0.00 | 79 | 1010.3 |
| 20260505095605 | 11 | 207 | 0.0 | 0.0 | 0.00 | 0.00 | 0.00 | 79 | 1010.1 |
| 20260505095100 | 12 | 207 | 0.0 | 0.0 | 0.00 | 0.00 | 0.00 | 80 | 1010.0 |
| 20260505094547 | 12 | 207 | 0.0 | 0.0 | 0.00 | 0.00 | 0.00 | 80 | 1010.1 |
| 20260505094538 | 11 | 0 | 0.0 | 0.0 | 0.00 | 0.00 | 0.00 | 79 | 1010.3 |
| 20260505094040 | 11 | 207 | 0.0 | 0.0 | 0.00 | 0.00 | 0.00 | 80 | 1010.1 |
| 20260505093535 | 12 | 207 | 0.0 | 0.0 | 0.00 | 0.00 | 0.00 | 78 | 1010.0 |
| 20260505093045 | 12 | 0 | 0.0 | 0.0 | 0.00 | 0.00 | 0.00 | 77 | 1010.3 |
| 20260505093030 | 12 | 207 | 0.0 | 0.0 | 0.00 | 0.00 | 0.00 | 77 | 1010.0 |
| 20260505092526 | 12 | 207 | 0.0 | 0.0 | 0.00 | 0.00 | 0.00 | 76 | 1009.9 |
| 20260505092020 | 13 | 207 | 0.0 | 0.0 | 0.00 | 0.00 | 0.00 | 72 | 1010.0 |
| 20260505091543 | 14 | 0 | 0.0 | 0.0 | 0.00 | 0.00 | 0.00 | 70 | 1010.3 |
| 20260505091514 | 14 | 207 | 0.0 | 0.0 | 0.00 | 0.00 | 0.00 | 70 | 1010.1 |
| 20260505090504 | 14 | 207 | 0.0 | 3.2 | 0.00 | 0.00 | 0.00 | 70 | 1009.9 |
| 20260505090052 | 15 | 0 | 0.0 | 3.2 | 0.00 | 0.00 | 0.00 | 68 | 1010.2 |
| 20260505090003 | 15 | 207 | 0.0 | 3.2 | 0.00 | 0.00 | 0.00 | 69 | 1009.9 |
| 20260505085457 | 15 | 207 | 0.0 | 3.2 | 0.00 | 0.00 | 0.00 | 69 | 1009.8 |
| 20260505084952 | 15 | 207 | 0.0 | 1.6 | 0.00 | 0.00 | 0.00 | 68 | 1009.8 |
| 20260505084541 | 15 | 0 | 0.0 | 4.8 | 0.00 | 0.00 | 0.00 | 66 | 1010.1 |
| 20260505084440 | 15 | 207 | 0.0 | 6.4 | 0.00 | 0.00 | 0.00 | 67 | 1009.7 |
| 20260505083936 | 15 | 207 | 0.0 | 6.4 | 0.00 | 0.00 | 0.00 | 67 | 1009.7 |
| 20260505083430 | 15 | 207 | 3.2 | 6.4 | 0.00 | 0.00 | 0.00 | 67 | 1009.7 |
| 20260505083043 | 15 | 0 | 0.0 | 0.0 | 0.00 | 0.00 | 0.00 | 67 | 1009.9 |
| 20260505082931 | 15 | 207 | 0.0 | 0.0 | 0.00 | 0.00 | 0.00 | 67 | 1009.7 |
| 20260505082428 | 15 | 207 | 0.0 | 0.0 | 0.00 | 0.00 | 0.00 | 67 | 1009.7 |
| 20260505082152 | 15 | 207 | 0.0 | 0.0 | 0.00 | 0.00 | 0.00 | 67 | 1009.7 |
| 20260505081546 | 15 | 0 | 0.0 | 0.0 | 0.00 | 0.00 | 0.00 | 66 | 1009.9 |
| 20260505081417 | 15 | 207 | 0.0 | 0.0 | 0.00 | 0.00 | 0.00 | 67 | 1009.7 |
| 20260505080912 | 15 | 207 | 0.0 | 0.0 | 0.00 | 0.00 | 0.00 | 67 | 1009.6 |
| 20260505080412 | 15 | 207 | 0.0 | 0.0 | 0.00 | 0.00 | 0.00 | 68 | 1009.7 |
| 20260505080124 | 15 | 207 | 0.0 | 0.0 | 0.00 | 0.00 | 0.00 | 69 | 1009.8 |
| 20260505080050 | 15 | 0 | 0.0 | 0.0 | 0.00 | 0.00 | 0.00 | 68 | 1010.1 |
| 20260505075403 | 15 | 207 | 0.0 | 1.6 | 0.00 | 0.00 | 0.00 | 68 | 1009.7 |
| 20260505074858 | 15 | 207 | 0.0 | 1.6 | 0.00 | 0.00 | 0.00 | 67 | 1009.7 |
| 20260505074537 | 15 | 0 | 0.0 | 3.2 | 0.00 | 0.00 | 0.00 | 65 | 1010.1 |
| 20260505074353 | 16 | 207 | 0.0 | 3.2 | 0.00 | 0.00 | 0.00 | 65 | 1009.7 |
| 20260505074108 | 16 | 207 | 0.0 | 3.2 | 0.00 | 0.00 | 0.00 | 64 | 1009.7 |
| 20260505073608 | 16 | 207 | 0.0 | 3.2 | 0.00 | 0.00 | 0.00 | 64 | 1009.8 |
| 20260505073106 | 16 | 207 | 0.0 | 3.2 | 0.00 | 0.00 | 0.00 | 63 | 1009.9 |
| 20260505073054 | 16 | 0 | 0.0 | 4.8 | 0.00 | 0.00 | 0.00 | 63 | 1010.1 |
| 20260505072341 | 16 | 207 | 0.0 | 9.7 | 0.00 | 0.00 | 0.00 | 61 | 1009.9 |
| 20260505071542 | 16 | 0 | 3.2 | 9.7 | 0.00 | 0.00 | 0.00 | 61 | 1010.2 |
| 20260505071329 | 16 | 206 | 4.8 | 9.7 | 0.00 | 0.00 | 0.00 | 61 | 1009.8 |
| 20260505070825 | 16 | 202 | 3.2 | 9.7 | 0.00 | 0.00 | 0.00 | 61 | 1009.9 |
| 20260505070319 | 16 | 219 | 0.0 | 9.7 | 0.00 | 0.00 | 0.00 | 61 | 1009.9 |
| 20260505070052 | 16 | 219 | 3.2 | 9.7 | 0.00 | 0.00 | 0.00 | 60 | 1010.1 |
| 20260505065304 | 16 | 213 | 1.6 | 6.4 | 0.00 | 0.00 | 0.00 | 61 | 1009.8 |
| 20260505064758 | 16 | 215 | 1.6 | 11.3 | 0.00 | 0.00 | 0.00 | 61 | 1009.9 |
| 20260505064537 | 16 | 0 | 1.6 | 11.3 | 0.00 | 0.00 | 0.00 | 60 | 1010.1 |
| 20260505064513 | 16 | 216 | 6.4 | 11.3 | 0.00 | 0.00 | 0.00 | 61 | 1009.7 |
| 20260505063745 | 16 | 249 | 3.2 | 9.7 | 0.00 | 0.00 | 0.00 | 61 | 1009.8 |
| 20260505063245 | 16 | 207 | 4.8 | 9.7 | 0.00 | 0.00 | 0.00 | 60 | 1009.9 |
| 20260505063046 | 16 | 212 | 4.8 | 12.9 | 0.00 | 0.00 | 0.00 | 60 | 1010.1 |
| 20260505063000 | 16 | 191 | 1.6 | 12.9 | 0.00 | 0.00 | 0.00 | 61 | 1009.8 |
| 20260505062233 | 16 | 204 | 3.2 | 12.9 | 0.00 | 0.00 | 0.00 | 61 | 1009.8 |
| 20260505061728 | 16 | 198 | 4.8 | 9.7 | 0.00 | 0.00 | 0.00 | 61 | 1009.9 |
| 20260505061542 | 16 | 194 | 3.2 | 9.7 | 0.00 | 0.00 | 0.00 | 60 | 1010.1 |
| 20260505061451 | 16 | 217 | 1.6 | 8.0 | 0.00 | 0.00 | 0.00 | 61 | 1009.9 |
| 20260505060722 | 16 | 211 | 3.2 | 8.0 | 0.00 | 0.00 | 0.00 | 61 | 1010.0 |
| 20260505060431 | 16 | 214 | 3.2 | 6.4 | 0.00 | 0.00 | 0.00 | 61 | 1009.9 |
| 20260505060045 | 15 | 214 | 1.6 | 8.0 | 0.00 | 0.00 | 0.00 | 60 | 1010.1 |
| 20260505055709 | 16 | 214 | 1.6 | 4.8 | 0.00 | 0.00 | 0.00 | 61 | 1009.9 |
| 20260505055428 | 15 | 214 | 1.6 | 4.8 | 0.00 | 0.00 | 0.00 | 61 | 1010.0 |
| 20260505054705 | 15 | 214 | 0.0 | 6.4 | 0.00 | 0.00 | 0.00 | 60 | 1009.8 |
| 20260505054544 | 15 | 0 | 0.0 | 6.4 | 0.00 | 0.00 | 0.00 | 59 | 1010.1 |
| 20260505054200 | 16 | 214 | 0.0 | 6.4 | 0.00 | 0.00 | 0.00 | 59 | 1009.8 |
| 20260505053651 | 16 | 221 | 1.6 | 6.4 | 0.00 | 0.00 | 0.00 | 59 | 1009.9 |
| 20260505053145 | 16 | 221 | 1.6 | 9.7 | 0.00 | 0.00 | 0.00 | 58 | 1009.8 |
| 20260505053042 | 16 | 224 | 0.0 | 9.7 | 0.00 | 0.00 | 0.00 | 58 | 1010.1 |
| 20260505052645 | 16 | 227 | 1.6 | 9.7 | 0.00 | 0.00 | 0.00 | 58 | 1009.7 |
| 20260505052139 | 16 | 193 | 1.6 | 8.0 | 0.00 | 0.00 | 0.00 | 57 | 1009.8 |
| 20260505051635 | 16 | 194 | 3.2 | 8.0 | 0.00 | 0.00 | 0.00 | 57 | 1009.8 |
| 20260505051547 | 16 | 194 | 1.6 | 8.0 | 0.00 | 0.00 | 0.00 | 57 | 1010.0 |
| 20260505051134 | 16 | 191 | 3.2 | 12.9 | 0.00 | 0.00 | 0.00 | 57 | 1009.7 |
| 20260505050623 | 16 | 222 | 1.6 | 12.9 | 0.00 | 0.00 | 0.00 | 56 | 1009.7 |
| 20260505050335 | 16 | 192 | 3.2 | 8.0 | 0.00 | 0.00 | 0.00 | 56 | 1009.7 |
| 20260505050123 | 16 | 192 | 1.6 | 9.7 | 0.00 | 0.00 | 0.00 | 56 | 1010.0 |
| 20260505041550 | 16 | 200 | 3.2 | 19.3 | 0.00 | 0.00 | 0.00 | 53 | 1010.2 |
| 20260505041531 | 16 | 200 | 6.4 | 14.5 | 0.00 | 0.00 | 0.00 | 54 | 1009.9 |
| 20260505041032 | 16 | 207 | 4.8 | 11.3 | 0.00 | 0.00 | 0.00 | 54 | 1009.9 |
| 20260505040532 | 16 | 196 | 0.0 | 3.2 | 0.00 | 0.00 | 0.00 | 54 | 1009.8 |
| 20260505040053 | 15 | 0 | 0.0 | 3.2 | 0.00 | 0.00 | 0.00 | 54 | 1010.0 |
| 20260505040026 | 15 | 196 | 0.0 | 3.2 | 0.00 | 0.00 | 0.00 | 54 | 1009.8 |
| 20260505035517 | 15 | 196 | 0.0 | 3.2 | 0.00 | 0.00 | 0.00 | 54 | 1009.7 |
| 20260505035011 | 16 | 196 | 0.0 | 4.8 | 0.00 | 0.00 | 0.00 | 54 | 1009.6 |
| 20260505034545 | 15 | 0 | 1.6 | 4.8 | 0.00 | 0.00 | 0.00 | 54 | 1009.9 |
| 20260505034505 | 16 | 196 | 1.6 | 4.8 | 0.00 | 0.00 | 0.00 | 54 | 1009.5 |
| 20260505034005 | 15 | 200 | 1.6 | 3.2 | 0.00 | 0.00 | 0.00 | 54 | 1009.6 |
| 20260505033459 | 15 | 200 | 1.6 | 3.2 | 0.00 | 0.00 | 0.00 | 55 | 1009.6 |
| 20260505033046 | 15 | 200 | 1.6 | 3.2 | 0.00 | 0.00 | 0.00 | 55 | 1009.8 |
| 20260505033000 | 15 | 200 | 1.6 | 3.2 | 0.00 | 0.00 | 0.00 | 55 | 1009.6 |
| 20260505032455 | 15 | 200 | 1.6 | 3.2 | 0.00 | 0.00 | 0.00 | 56 | 1009.6 |
| 20260505031948 | 15 | 200 | 0.0 | 3.2 | 0.00 | 0.00 | 0.00 | 55 | 1009.6 |
| 20260505031545 | 15 | 0 | 0.0 | 4.8 | 0.00 | 0.00 | 0.00 | 57 | 1009.9 |
| 20260505031439 | 15 | 200 | 1.6 | 4.8 | 0.00 | 0.00 | 0.00 | 57 | 1009.6 |
| 20260505030934 | 15 | 200 | 0.0 | 4.8 | 0.00 | 0.00 | 0.00 | 55 | 1009.6 |
| 20260505030429 | 15 | 201 | 0.0 | 1.6 | 0.00 | 0.00 | 0.00 | 54 | 1009.8 |
| 20260505030042 | 16 | 0 | 0.0 | 3.2 | 0.00 | 0.00 | 0.00 | 51 | 1010.1 |
| 20260505025926 | 16 | 201 | 0.0 | 1.6 | 0.00 | 0.00 | 0.00 | 51 | 1009.8 |
| 20260505025421 | 16 | 201 | 0.0 | 1.6 | 0.00 | 0.00 | 0.00 | 51 | 1009.7 |
| 20260505024917 | 16 | 201 | 0.0 | 3.2 | 0.00 | 0.00 | 0.00 | 52 | 1009.7 |
| 20260505024548 | 16 | 0 | 1.6 | 4.8 | 0.00 | 0.00 | 0.00 | 52 | 1010.0 |
| 20260505024412 | 16 | 204 | 1.6 | 4.8 | 0.00 | 0.00 | 0.00 | 53 | 1009.6 |
| 20260505023906 | 16 | 204 | 0.0 | 4.8 | 0.00 | 0.00 | 0.00 | 53 | 1009.6 |
| 20260505023404 | 16 | 204 | 0.0 | 3.2 | 0.00 | 0.00 | 0.00 | 52 | 1009.8 |
| 20260505023045 | 16 | 0 | 0.0 | 3.2 | 0.00 | 0.00 | 0.00 | 51 | 1010.2 |
| 20260505022900 | 16 | 204 | 0.0 | 3.2 | 0.00 | 0.00 | 0.00 | 51 | 1009.9 |
| 20260505022359 | 16 | 204 | 0.0 | 3.2 | 0.00 | 0.00 | 0.00 | 51 | 1009.9 |
| 20260505022110 | 16 | 204 | 0.0 | 0.0 | 0.00 | 0.00 | 0.00 | 51 | 1009.9 |
| 20260505021543 | 16 | 0 | 0.0 | 1.6 | 0.00 | 0.00 | 0.00 | 50 | 1010.3 |
| 20260505021345 | 17 | 204 | 0.0 | 1.6 | 0.00 | 0.00 | 0.00 | 50 | 1009.9 |
| 20260505020844 | 17 | 204 | 0.0 | 4.8 | 0.00 | 0.00 | 0.00 | 49 | 1009.9 |
| 20260505020341 | 17 | 204 | 1.6 | 4.8 | 0.00 | 0.00 | 0.00 | 49 | 1010.0 |
| 20260505020041 | 17 | 0 | 0.0 | 3.2 | 0.00 | 0.00 | 0.00 | 48 | 1010.3 |
| 20260505015838 | 17 | 204 | 0.0 | 3.2 | 0.00 | 0.00 | 0.00 | 49 | 1010.0 |
| 20260505015326 | 17 | 204 | 0.0 | 1.6 | 0.00 | 0.00 | 0.00 | 49 | 1009.9 |
| 20260505014822 | 17 | 204 | 0.0 | 3.2 | 0.00 | 0.00 | 0.00 | 50 | 1010.0 |
| 20260505014557 | 17 | 0 | 0.0 | 3.2 | 0.00 | 0.00 | 0.00 | 49 | 1010.2 |
| 20260505014318 | 17 | 204 | 0.0 | 3.2 | 0.00 | 0.00 | 0.00 | 50 | 1009.8 |
| 20260505013817 | 17 | 204 | 0.0 | 3.2 | 0.00 | 0.00 | 0.00 | 50 | 1009.8 |
| 20260505013305 | 17 | 204 | 0.0 | 3.2 | 0.00 | 0.00 | 0.00 | 50 | 1009.9 |
| 20260505013049 | 17 | 204 | 0.0 | 3.2 | 0.00 | 0.00 | 0.00 | 50 | 1010.0 |
| 20260505012757 | 17 | 204 | 1.6 | 3.2 | 0.00 | 0.00 | 0.00 | 51 | 1009.9 |
| 20260505012250 | 16 | 204 | 0.0 | 3.2 | 0.00 | 0.00 | 0.00 | 51 | 1009.9 |
| 20260505011743 | 16 | 204 | 0.0 | 0.0 | 0.00 | 0.00 | 0.00 | 53 | 1009.8 |
| 20260505011538 | 16 | 0 | 0.0 | 0.0 | 0.00 | 0.00 | 0.00 | 52 | 1010.0 |
| 20260505011239 | 16 | 204 | 0.0 | 0.0 | 0.00 | 0.00 | 0.00 | 52 | 1009.7 |
| 20260505010956 | 16 | 204 | 0.0 | 0.0 | 0.00 | 0.00 | 0.00 | 52 | 1009.6 |
| 20260505010230 | 16 | 204 | 0.0 | 0.0 | 0.00 | 0.00 | 0.00 | 52 | 1009.5 |
| 20260505010045 | 16 | 0 | 0.0 | 0.0 | 0.00 | 0.00 | 0.00 | 52 | 1009.9 |
| 20260505005724 | 16 | 204 | 0.0 | 0.0 | 0.00 | 0.00 | 0.00 | 52 | 1009.6 |
| 20260505005224 | 17 | 204 | 0.0 | 0.0 | 0.00 | 0.00 | 0.00 | 50 | 1009.5 |
| 20260505004716 | 17 | 204 | 0.0 | 0.0 | 0.00 | 0.00 | 0.00 | 48 | 1009.4 |
| 20260505004544 | 17 | 0 | 0.0 | 0.0 | 0.00 | 0.00 | 0.00 | 48 | 1009.6 |
| 20260505004210 | 17 | 204 | 0.0 | 0.0 | 0.00 | 0.00 | 0.00 | 48 | 1009.3 |
| 20260505003927 | 18 | 204 | 0.0 | 0.0 | 0.00 | 0.00 | 0.00 | 46 | 1009.4 |
| 20260505003205 | 18 | 204 | 0.0 | 0.0 | 0.00 | 0.00 | 0.00 | 47 | 1009.3 |
| 20260505003039 | 17 | 0 | 0.0 | 0.0 | 0.00 | 0.00 | 0.00 | 46 | 1009.5 |
| 20260505002706 | 17 | 204 | 0.0 | 0.0 | 0.00 | 0.00 | 0.00 | 47 | 1009.3 |
| 20260505002202 | 18 | 204 | 0.0 | 0.0 | 0.00 | 0.00 | 0.00 | 46 | 1009.4 |
| 20260505001916 | 18 | 204 | 0.0 | 3.2 | 0.00 | 0.00 | 0.00 | 44 | 1009.3 |
| 20260505001542 | 18 | 0 | 0.0 | 3.2 | 0.00 | 0.00 | 0.00 | 44 | 1009.4 |
| 20260505001402 | 19 | 204 | 0.0 | 4.8 | 0.00 | 0.00 | 0.00 | 43 | 1009.1 |
| 20260505000640 | 19 | 204 | 0.0 | 9.7 | 0.00 | 0.00 | 0.00 | 42 | 1009.1 |
| 20260505000358 | 20 | 208 | 1.6 | 9.7 | 0.00 | 0.00 | 0.00 | 42 | 1009.1 |
| 20260505000051 | 19 | 207 | 0.0 | 8.0 | 0.00 | 0.00 | 0.00 | 41 | 1009.4 |
| 20260504235630 | 20 | 207 | 3.2 | 11.3 | 0.00 | 0.00 | 0.00 | 41 | 1009.1 |
| 20260504235125 | 20 | 209 | 1.6 | 11.3 | 0.00 | 0.00 | 0.00 | 41 | 1009.1 |
| 20260504234620 | 20 | 184 | 3.2 | 11.3 | 0.00 | 0.00 | 0.00 | 40 | 1009.1 |
| 20260504234603 | 20 | 184 | 4.8 | 12.9 | 0.00 | 0.00 | 0.00 | 40 | 1009.4 |
| 20260504234115 | 20 | 207 | 3.2 | 9.7 | 0.00 | 0.00 | 0.00 | 41 | 1009.0 |
| 20260504233840 | 20 | 168 | 6.4 | 12.9 | 0.00 | 0.00 | 0.00 | 40 | 1009.0 |
| 20260504233104 | 20 | 179 | 4.8 | 12.9 | 0.00 | 0.00 | 0.00 | 39 | 1009.0 |
| 20260504233047 | 20 | 172 | 4.8 | 12.9 | 0.00 | 0.00 | 0.00 | 39 | 1009.1 |
| 20260504232600 | 20 | 211 | 6.4 | 11.3 | 0.00 | 0.00 | 0.00 | 39 | 1009.0 |
| 20260504232055 | 20 | 193 | 3.2 | 12.9 | 0.00 | 0.00 | 0.00 | 39 | 1008.9 |
| 20260504231551 | 21 | 213 | 6.4 | 12.9 | 0.00 | 0.00 | 0.00 | 38 | 1008.9 |
| 20260504231539 | 20 | 213 | 6.4 | 17.7 | 0.00 | 0.00 | 0.00 | 38 | 1009.2 |
| 20260504231048 | 21 | 202 | 6.4 | 14.5 | 0.00 | 0.00 | 0.00 | 39 | 1008.9 |
| 20260504230546 | 21 | 183 | 8.0 | 17.7 | 0.00 | 0.00 | 0.00 | 39 | 1008.8 |
| 20260504230042 | 21 | 165 | 6.4 | 19.3 | 0.00 | 0.00 | 0.00 | 37 | 1009.1 |
| 20260504230038 | 21 | 167 | 4.8 | 17.7 | 0.00 | 0.00 | 0.00 | 38 | 1008.8 |
| 20260504225534 | 21 | 167 | 3.2 | 14.5 | 0.00 | 0.00 | 0.00 | 39 | 1008.9 |
| 20260504225029 | 21 | 119 | 8.0 | 14.5 | 0.00 | 0.00 | 0.00 | 38 | 1008.8 |
| 20260504224550 | 21 | 198 | 4.8 | 17.7 | 0.00 | 0.00 | 0.00 | 38 | 1009.2 |
| 20260504224024 | 21 | 115 | 6.4 | 14.5 | 0.00 | 0.00 | 0.00 | 38 | 1008.9 |
| 20260504223515 | 21 | 192 | 6.4 | 12.9 | 0.00 | 0.00 | 0.00 | 37 | 1008.8 |
| 20260504223044 | 21 | 184 | 3.2 | 16.1 | 0.00 | 0.00 | 0.00 | 39 | 1009.0 |
| 20260504223012 | 21 | 205 | 3.2 | 12.9 | 0.00 | 0.00 | 0.00 | 39 | 1008.7 |
| 20260504222517 | 21 | 121 | 6.4 | 12.9 | 0.00 | 0.00 | 0.00 | 38 | 1008.7 |
| 20260504222009 | 22 | 143 | 8.0 | 14.5 | 0.00 | 0.00 | 0.00 | 37 | 1008.9 |
| 20260504221543 | 21 | 193 | 4.8 | 19.3 | 0.00 | 0.00 | 0.00 | 38 | 1009.2 |
| 20260504221508 | 22 | 190 | 6.4 | 14.5 | 0.00 | 0.00 | 0.00 | 37 | 1008.9 |
| 20260504221003 | 22 | 200 | 8.0 | 19.3 | 0.00 | 0.00 | 0.00 | 37 | 1009.0 |
| 20260504220454 | 22 | 181 | 8.0 | 19.3 | 0.00 | 0.00 | 0.00 | 39 | 1009.0 |
| 20260504220211 | 22 | 194 | 6.4 | 16.1 | 0.00 | 0.00 | 0.00 | 39 | 1009.0 |
| 20260504220041 | 22 | 194 | 4.8 | 16.1 | 0.00 | 0.00 | 0.00 | 39 | 1009.2 |
| 20260504215448 | 22 | 209 | 6.4 | 16.1 | 0.00 | 0.00 | 0.00 | 38 | 1009.0 |
| 20260504214945 | 22 | 123 | 6.4 | 14.5 | 0.00 | 0.00 | 0.00 | 39 | 1008.8 |
| 20260504214541 | 22 | 118 | 6.4 | 19.3 | 0.00 | 0.00 | 0.00 | 37 | 1009.2 |
| 20260504214440 | 22 | 192 | 4.8 | 20.9 | 0.00 | 0.00 | 0.00 | 38 | 1009.0 |
| 20260504213937 | 22 | 209 | 8.0 | 20.9 | 0.00 | 0.00 | 0.00 | 38 | 1008.9 |
| 20260504213436 | 22 | 125 | 3.2 | 17.7 | 0.00 | 0.00 | 0.00 | 39 | 1009.0 |
| 20260504213055 | 22 | 192 | 8.0 | 17.7 | 0.00 | 0.00 | 0.00 | 37 | 1009.2 |
| 20260504212933 | 22 | 190 | 8.0 | 17.7 | 0.00 | 0.00 | 0.00 | 37 | 1008.9 |
| 20260504212427 | 22 | 178 | 4.8 | 20.9 | 0.00 | 0.00 | 0.00 | 39 | 1009.0 |
| 20260504211922 | 22 | 213 | 9.7 | 20.9 | 0.00 | 0.00 | 0.00 | 38 | 1009.0 |
| 20260504211539 | 22 | 158 | 4.8 | 17.7 | 0.00 | 0.00 | 0.00 | 37 | 1009.3 |
| 20260504211416 | 22 | 140 | 4.8 | 16.1 | 0.00 | 0.00 | 0.00 | 39 | 1009.0 |
| 20260504210912 | 22 | 133 | 6.4 | 16.1 | 0.00 | 0.00 | 0.00 | 39 | 1009.0 |
| 20260504210630 | 22 | 232 | 8.0 | 16.1 | 0.00 | 0.00 | 0.00 | 38 | 1009.0 |
| 20260504210123 | 22 | 156 | 8.0 | 16.1 | 0.00 | 0.00 | 0.00 | 40 | 1009.0 |
| 20260504210043 | 22 | 179 | 8.0 | 16.1 | 0.00 | 0.00 | 0.00 | 39 | 1009.3 |
| 20260504204855 | 22 | 124 | 3.2 | 16.1 | 0.00 | 0.00 | 0.00 | 38 | 1008.9 |
| 20260504204542 | 22 | 194 | 4.8 | 20.9 | 0.00 | 0.00 | 0.00 | 37 | 1009.1 |
| 20260504204354 | 22 | 207 | 3.2 | 16.1 | 0.00 | 0.00 | 0.00 | 37 | 1008.9 |
| 20260504203850 | 22 | 218 | 8.0 | 16.1 | 0.00 | 0.00 | 0.00 | 35 | 1009.1 |
| 20260504203345 | 22 | 197 | 9.7 | 17.7 | 0.00 | 0.00 | 0.00 | 36 | 1009.0 |
| 20260504203042 | 22 | 184 | 6.4 | 17.7 | 0.00 | 0.00 | 0.00 | 36 | 1009.3 |
| 20260504202840 | 22 | 202 | 9.7 | 17.7 | 0.00 | 0.00 | 0.00 | 36 | 1009.0 |
| 20260504202335 | 22 | 197 | 4.8 | 20.9 | 0.00 | 0.00 | 0.00 | 39 | 1009.1 |
| 20260504201540 | 22 | 238 | 8.0 | 22.5 | 0.00 | 0.00 | 0.00 | 34 | 1009.6 |
| 20260504201325 | 22 | 205 | 9.7 | 20.9 | 0.00 | 0.00 | 0.00 | 36 | 1009.3 |
| 20260504200826 | 22 | 271 | 9.7 | 20.9 | 0.00 | 0.00 | 0.00 | 37 | 1009.4 |
| 20260504200317 | 22 | 224 | 8.0 | 14.5 | 0.00 | 0.00 | 0.00 | 35 | 1009.3 |
| 20260504200049 | 22 | 200 | 6.4 | 19.3 | 0.00 | 0.00 | 0.00 | 35 | 1009.6 |
| 20260504195814 | 22 | 204 | 6.4 | 16.1 | 0.00 | 0.00 | 0.00 | 38 | 1009.5 |
| 20260504195311 | 23 | 225 | 9.7 | 16.1 | 0.00 | 0.00 | 0.00 | 35 | 1009.6 |
| 20260504194806 | 22 | 225 | 6.4 | 30.6 | 0.00 | 0.00 | 0.00 | 36 | 1009.4 |
| 20260504194557 | 22 | 196 | 6.4 | 30.6 | 0.00 | 0.00 | 0.00 | 35 | 1009.6 |
| 20260504193756 | 23 | 252 | 11.3 | 16.1 | 0.00 | 0.00 | 0.00 | 35 | 1009.6 |
| 20260504193251 | 23 | 229 | 9.7 | 14.5 | 0.00 | 0.00 | 0.00 | 34 | 1009.6 |
| 20260504193051 | 23 | 223 | 4.8 | 16.1 | 0.00 | 0.00 | 0.00 | 37 | 1009.8 |
| 20260504193005 | 23 | 208 | 3.2 | 16.1 | 0.00 | 0.00 | 0.00 | 38 | 1009.7 |
| 20260504192453 | 22 | 215 | 4.8 | 20.9 | 0.00 | 0.00 | 0.00 | 37 | 1009.6 |
| 20260504191730 | 22 | 215 | 8.0 | 20.9 | 0.00 | 0.00 | 0.00 | 36 | 1009.7 |
| 20260504191539 | 22 | 198 | 9.7 | 17.7 | 0.00 | 0.00 | 0.00 | 35 | 1010.0 |
| 20260504191229 | 22 | 197 | 9.7 | 16.1 | 0.00 | 0.00 | 0.00 | 38 | 1009.7 |
| 20260504190725 | 22 | 203 | 4.8 | 16.1 | 0.00 | 0.00 | 0.00 | 40 | 1009.8 |
| 20260504190447 | 22 | 230 | 6.4 | 16.1 | 0.00 | 0.00 | 0.00 | 36 | 1009.8 |
| 20260504190041 | 22 | 260 | 6.4 | 14.5 | 0.00 | 0.00 | 0.00 | 36 | 1010.1 |
| 20260504185715 | 22 | 260 | 6.4 | 20.9 | 0.00 | 0.00 | 0.00 | 35 | 1009.9 |
| 20260504184706 | 22 | 222 | 9.7 | 20.9 | 0.00 | 0.00 | 0.00 | 36 | 1010.1 |
| 20260504184541 | 21 | 207 | 8.0 | 22.5 | 0.00 | 0.00 | 0.00 | 35 | 1010.6 |
| 20260504184201 | 22 | 242 | 11.3 | 20.9 | 0.00 | 0.00 | 0.00 | 36 | 1010.2 |
| 20260504183658 | 22 | 169 | 9.7 | 20.9 | 0.00 | 0.00 | 0.00 | 38 | 1010.2 |
| 20260504183153 | 22 | 188 | 6.4 | 22.5 | 0.00 | 0.00 | 0.00 | 39 | 1010.2 |
| 20260504183038 | 21 | 145 | 6.4 | 27.4 | 0.00 | 0.00 | 0.00 | 38 | 1010.4 |
| 20260504182913 | 21 | 208 | 8.0 | 27.4 | 0.00 | 0.00 | 0.00 | 37 | 1010.3 |
| 20260504182322 | 21 | 340 | 9.7 | 20.9 | 0.00 | 0.00 | 0.00 | 37 | 1010.5 |
| 20260504182317 | 21 | 306 | 6.4 | 20.9 | 0.00 | 0.00 | 0.00 | 37 | 1010.6 |
| 20260504182309 | 22 | 229 | 11.3 | 27.4 | 0.00 | 0.00 | 0.00 | 37 | 1010.4 |
| 20260504182250 | 21 | 180 | 8.0 | 27.4 | 0.00 | 0.00 | 0.00 | 37 | 1010.3 |
| 20260504182229 | 21 | 201 | 11.3 | 27.4 | 0.00 | 0.00 | 0.00 | 36 | 1010.5 |
| 20260504175629 | 21 | 179 | 11.3 | 20.9 | 0.00 | 0.00 | 0.00 | 38 | 1010.7 |
| 20260504175121 | 21 | 206 | 9.7 | 20.9 | 0.00 | 0.00 | 0.00 | 38 | 1010.7 |
| 20260504174615 | 21 | 116 | 6.4 | 14.5 | 0.00 | 0.00 | 0.00 | 38 | 1010.7 |
| 20260504174544 | 21 | 146 | 4.8 | 19.3 | 0.00 | 0.00 | 0.00 | 39 | 1011.0 |
| 20260504174110 | 21 | 188 | 3.2 | 22.5 | 0.00 | 0.00 | 0.00 | 39 | 1010.8 |
| 20260504173101 | 21 | 212 | 11.3 | 17.7 | 0.00 | 0.00 | 0.00 | 37 | 1010.9 |
| 20260504173047 | 20 | 215 | 11.3 | 24.1 | 0.00 | 0.00 | 0.00 | 36 | 1011.3 |
| 20260504172603 | 20 | 244 | 8.0 | 17.7 | 0.00 | 0.00 | 0.00 | 39 | 1011.1 |
| 20260504172100 | 21 | 198 | 8.0 | 19.3 | 0.00 | 0.00 | 0.00 | 40 | 1011.1 |
| 20260504171553 | 21 | 202 | 8.0 | 19.3 | 0.00 | 0.00 | 0.00 | 38 | 1011.4 |
| 20260504171548 | 20 | 180 | 8.0 | 20.9 | 0.00 | 0.00 | 0.00 | 37 | 1011.6 |
| 20260504171047 | 21 | 162 | 6.4 | 14.5 | 0.00 | 0.00 | 0.00 | 40 | 1011.2 |